Home   Weather   Porto Acre   Past weeks

Flag for Brazil Past Weather in Porto Acre, Acre, Brazil — Yesterday and Last 2 Weeks

Now
70 °F

Overcast.


Feels Like: 70 °F
Forecast: 71 / 91 °F
Wind: 6 mph from Southwest

Location: Rio Branco Airport

Current Time: Aug 18, 2017 at 2:07:07 am

Latest Report: Aug 18, 2017 at 1:00 am


Visibility: N/A

Pressure: 29.92 "Hg

Humidity: 83%

Dew Point: 64 °F

Location of Porto AcreLocation

Past Weather in Porto Acre — Graph

°F

Porto Acre Temperature Yesterday

Maximum temperature yesterday: 81 °F (at 10:00 am)
Minimum temperature yesterday: 72 °F (at 9:00 pm)
Average temperature yesterday: 76 °F

High & Low Weather Summary for the Past Weeks

 TemperatureHumidityPressure
High97 °F (Aug 9, 12:00 pm)94% (Aug 3, 6:00 am)30.09 "Hg (Aug 3, 6:00 am)
Low63 °F (Aug 4, 5:00 am)26% (Aug 7, 1:00 pm)28.88 "Hg (Aug 7, 3:00 am)
Average80 °F64%29.90 "Hg
* Reported Aug 3 1:00 am — Aug 18 1:00 am, Porto Acre. Weather by CustomWeather, © 2017

Note: Actual official high and low records may vary slightly from our data, if they occured in-between our weather recording intervals... More about our weather records

Advertising

Porto Acre Weather History for the Previous 24 Hours

Scroll right to see more
 ConditionsComfort  
Time TempWeatherWind HumidityBarometerVisibility
1:00 am
Fri, Aug 18
70 °FOvercast.6 mph83%29.92 "HgN/A
12:00 am70 °FMostly cloudy.5 mph83%29.92 "HgN/A
11:00 pm
Thu, Aug 17
72 °FPassing clouds.5 mph83%29.95 "HgN/A
10:00 pm72 °FPassing clouds.5 mph83%29.95 "HgN/A
9:00 pm72 °FPassing clouds.5 mph83%29.92 "HgN/A
8:00 pm73 °FPassing clouds.3 mph78%29.92 "HgN/A
7:00 pm75 °FPassing clouds.3 mph78%29.92 "HgN/A
6:00 pm75 °FMostly cloudy.7 mph78%29.89 "Hg5 mi
5:00 pm75 °FMostly cloudy.8 mph78%29.83 "Hg5 mi
4:20 pm75 °FMostly cloudy.10 mph78%29.83 "Hg5 mi
4:00 pm77 °FOvercast.10 mph74%29.83 "HgN/A
3:00 pm81 °FPartly sunny.7 mph70%29.83 "HgN/A
2:00 pm81 °FPartly sunny.7 mph66%29.83 "HgN/A
1:00 pm81 °FPartly sunny.8 mph66%29.86 "HgN/A
12:00 pm81 °FPartly sunny.7 mph66%29.89 "HgN/A
11:00 am81 °FPartly sunny.8 mph66%29.92 "HgN/A
10:00 am81 °FPartly sunny.7 mph66%29.95 "HgN/A
9:00 am77 °FPartly sunny.7 mph79%29.95 "HgN/A
8:00 am75 °FPartly sunny.9 mph83%29.95 "HgN/A
7:15 am75 °FPartly sunny.7 mph83%29.95 "HgN/A
7:00 am75 °FPartly sunny.8 mph83%29.92 "HgN/A
6:00 am73 °FPassing clouds.6 mph89%29.89 "HgN/A
5:00 am73 °FClear.8 mph89%29.86 "Hg10 mi
4:00 am73 °FClear.3 mph89%29.83 "Hg10 mi
3:00 am75 °FClear.3 mph83%29.83 "Hg10 mi
2:00 am77 °FClear.3 mph79%29.83 "Hg10 mi
Weather by CustomWeather, © 2017

See weather overviewHow to use our weather pages